EW2112 Weather Reports


Display with metric or nautical units.
time (UTC)temp
F
wind
direction
speed
MPH
gust
MPH
rain 1hr
in
rain 24hr
in
rain mn
in
humidity
%
barometer
mb
20260903163037 52 206 0.0 0.0 0.00 0.00 0.00 74 1015.9
20260903161532 53 206 0.0 1.0 0.00 0.00 0.00 74 1016.0
20260903160031 53 206 0.0 2.0 0.00 0.00 0.00 73 1016.1
20260903154528 54 206 1.0 2.0 0.00 0.00 0.00 72 1016.0
20260903153025 55 206 0.0 1.0 0.00 0.00 0.00 70 1016.2
20260903151522 56 206 0.0 0.0 0.00 0.00 0.00 67 1016.2
20260903150021 57 206 0.0 0.0 0.00 0.00 0.00 66 1016.2
20260903144517 58 206 0.0 1.0 0.00 0.00 0.00 63 1016.1
20260903143024 58 225 1.0 4.0 0.00 0.00 0.00 63 1016.1
20260903141513 58 194 2.0 5.0 0.00 0.00 0.00 63 1016.2
20260903140017 57 226 0.0 2.0 0.00 0.00 0.00 64 1016.2
20260903134508 58 227 0.0 1.0 0.00 0.00 0.00 63 1016.0
20260903133004 59 227 0.0 1.0 0.00 0.00 0.00 61 1016.0
20260903131502 60 226 0.0 3.0 0.00 0.00 0.00 60 1015.9
20260903130120 61 217 0.0 3.0 0.00 0.00 0.00 58 1015.5
20260903124559 61 211 0.0 5.0 0.00 0.00 0.00 57 1015.5
20260903123054 62 232 2.0 5.0 0.00 0.00 0.00 55 1015.2
20260903121552 62 208 1.0 3.0 0.00 0.00 0.00 53 1015.1
20260903120050 62 215 0.0 3.0 0.00 0.00 0.00 52 1015.0
20260903114548 62 215 2.0 4.0 0.00 0.00 0.00 54 1014.7
20260903113046 63 258 0.0 2.0 0.00 0.00 0.00 58 1014.4
20260903111543 64 258 0.0 3.0 0.00 0.00 0.00 56 1014.3
20260903110038 65 273 2.0 6.0 0.00 0.00 0.00 55 1014.0
20260903104537 66 265 1.0 3.0 0.00 0.00 0.00 53 1013.6
20260903103032 66 273 1.0 7.0 0.00 0.00 0.00 52 1013.3
20260903101529 67 305 3.0 8.0 0.00 0.00 0.00 51 1013.0
20260903100027 68 309 2.0 10.0 0.00 0.00 0.00 50 1012.5
20260903094524 68 290 4.0 13.0 0.00 0.00 0.00 50 1012.1
20260903093028 68 286 3.0 11.0 0.00 0.00 0.00 49 1011.9
20260903091520 69 304 2.0 6.0 0.00 0.00 0.00 48 1011.6
20260903090018 70 290 3.0 7.0 0.00 0.00 0.00 46 1011.3
20260903084522 71 272 5.0 9.0 0.00 0.00 0.00 45 1011.0
20260903083014 71 289 5.0 9.0 0.00 0.00 0.00 44 1010.7
20260903081514 72 294 5.0 12.0 0.00 0.00 0.00 42 1010.5
20260903080011 73 315 2.0 6.0 0.00 0.00 0.00 38 1010.0
20260903074506 74 273 3.0 8.0 0.00 0.00 0.00 34 1009.6
20260903073005 75 333 3.0 9.0 0.00 0.00 0.00 33 1009.3
20260903071503 76 279 3.0 11.0 0.00 0.00 0.00 32 1009.1
20260903070001 78 300 4.0 8.0 0.00 0.00 0.00 30 1008.7
20260903064500 78 273 3.0 10.0 0.00 0.00 0.00 30 1008.4
20260903063059 79 288 5.0 14.0 0.00 0.00 0.00 29 1008.3
20260903061607 79 223 5.0 13.0 0.00 0.00 0.00 29 1007.9
20260903060059 79 311 6.0 15.0 0.00 0.00 0.00 29 1007.9
20260903054558 79 280 5.0 15.0 0.00 0.00 0.00 29 1007.7
20260903053057 79 277 5.0 15.0 0.00 0.00 0.00 28 1007.6
20260903051602 80 285 8.0 15.0 0.00 0.00 0.00 28 1007.6
20260903050055 80 331 6.0 15.0 0.00 0.00 0.00 31 1007.4
20260903044554 80 259 6.0 17.0 0.00 0.00 0.00 31 1007.1
20260903043052 80 175 6.0 17.0 0.00 0.00 0.00 31 1007.0
20260903041552 80 348 6.0 14.0 0.00 0.00 0.00 32 1007.0
20260903040050 80 279 2.0 15.0 0.00 0.00 0.00 33 1006.9
20260903034559 81 268 7.0 16.0 0.00 0.00 0.00 32 1006.7
20260903033047 82 286 6.0 15.0 0.00 0.00 0.00 31 1006.6
20260903031548 82 201 4.0 12.0 0.00 0.00 0.00 30 1006.5
20260903030045 81 30 7.0 17.0 0.00 0.00 0.00 32 1006.5
20260903024549 81 310 4.0 16.0 0.00 0.00 0.00 34 1006.4
20260903023045 82 241 4.0 16.0 0.00 0.00 0.00 34 1006.5
20260903021540 81 259 4.0 20.0 0.00 0.00 0.00 33 1006.4
20260903020051 82 253 6.0 13.0 0.00 0.00 0.00 32 1006.4
20260903014537 82 246 5.0 12.0 0.00 0.00 0.00 33 1006.4
20260903013033 81 282 6.0 16.0 0.00 0.00 0.00 33 1006.4
20260903011530 80 288 6.0 15.0 0.00 0.00 0.00 34 1006.2
20260903010027 80 282 7.0 17.0 0.00 0.00 0.00 33 1006.4
20260903004527 80 199 10.0 16.0 0.00 0.00 0.00 32 1006.4
20260903003023 79 242 7.0 20.0 0.00 0.00 0.00 34 1006.2
20260903001519 79 252 6.0 16.0 0.00 0.00 0.00 38 1006.0
20260903000014 78 346 5.0 16.0 0.00 0.00 0.00 40 1006.0
20260902234517 78 270 6.0 17.0 0.00 0.00 0.00 41 1006.0
20260902233008 77 256 5.0 15.0 0.00 0.00 0.00 42 1005.9
20260902231504 76 311 5.0 11.0 0.00 0.00 0.00 43 1005.9
20260902230103 74 309 3.0 6.0 0.00 0.00 0.00 47 1005.8
20260902224557 73 297 3.0 11.0 0.00 0.00 0.00 49 1005.6
20260902223101 72 351 3.0 10.0 0.00 0.00 0.00 50 1005.7
20260902221551 71 32 4.0 14.0 0.00 0.00 0.00 50 1005.6
20260902220047 70 328 4.0 10.0 0.00 0.00 0.00 52 1005.5
20260902214543 69 360 2.0 5.0 0.00 0.00 0.00 53 1005.5
20260902213038 68 289 1.0 4.0 0.00 0.00 0.00 54 1005.5
20260902211534 67 294 0.0 3.0 0.00 0.00 0.00 57 1005.6
20260902210029 66 344 3.0 8.0 0.00 0.00 0.00 59 1005.3
20260902204528 65 329 0.0 4.0 0.00 0.00 0.00 60 1005.1
20260902203026 66 350 2.0 6.0 0.00 0.00 0.00 60 1005.1
20260902201524 66 26 3.0 10.0 0.00 0.00 0.00 59 1005.0
20260902200021 66 48 4.0 10.0 0.00 0.00 0.00 59 1005.0
20260902194523 67 37 5.0 10.0 0.00 0.00 0.00 58 1005.4
20260902193018 67 15 4.0 10.0 0.00 0.00 0.00 57 1005.5
20260902191517 67 20 2.0 4.0 0.00 0.00 0.00 59 1005.8
20260902190019 67 35 3.0 8.0 0.00 0.00 0.00 59 1006.1
20260902184516 68 342 3.0 10.0 0.00 0.00 0.00 59 1006.7
20260902183015 67 24 3.0 5.0 0.00 0.00 0.00 64 1006.8
20260902181510 69 209 0.0 3.0 0.00 0.00 0.00 57 1007.3
20260902180009 69 279 1.0 5.0 0.00 0.00 0.00 52 1006.7
20260902174508 69 338 1.0 4.0 0.00 0.00 0.00 51 1006.1
20260902173006 69 22 2.0 6.0 0.00 0.00 0.00 52 1006.1
20260902171504 69 355 3.0 8.0 0.00 0.00 0.00 53 1006.4
20260902170001 69 5 2.0 5.0 0.00 0.00 0.00 53 1006.7
20260902164559 69 348 3.0 9.0 0.00 0.00 0.00 53 1007.1